Regional Weather Roundup
Issued by NWS

Home | Current Version | Previous Version | Text Only | Print | Product List | Glossary On
Versions: 1 2 3 4 5 6 7 8 9 10 11 12 13 14 15 16 17 18 19 20 21 22 23 24 25 26 27 28 29 30 31 32 33 34 35 36 37 38 39 40 41 42 43 44 45 46 47 48 49 50
825
ASUS44 KOUN 130710
RWROK

WEATHER ROUNDUP FOR OKLAHOMA
NATIONAL WEATHER SERVICE NORMAN OK
100 AM CST SAT FEB 13 2016

NOTE: "FAIR" INDICATES FEW OR NO CLOUDS BELOW 12,000 FEET WITH NO
      SIGNIFICANT WEATHER AND/OR OBSTRUCTIONS TO VISIBILITY.

OKZ001>007-009>012-014-015-017-130800-
NORTHWEST OKLAHOMA AND THE PANHANDLE

CITY           SKY/WX    TMP DP  RH WIND       PRES   REMARKS
GAGE           CLEAR     28  25  88 E6        30.42F WCI  22
GUYMON         CLOUDY    30  26  85 SE8       30.36S WCI  22
ENID/WOODRING  PTCLDY    34  27  75 NE10      30.48S WCI  26
$$

OKZ016-021>023-033>039-044-045-130800-
SOUTHWEST OKLAHOMA

CITY           SKY/WX    TMP DP  RH WIND       PRES   REMARKS
LAWTON/REGL    CLEAR     39  30  70 NE9       30.42R WCI  33
LAWTON/FT SILL CLEAR     37  31  77 NE10      30.40S WCI  30
FREDERICK      PTCLDY    40  32  73 NE14      30.38R WCI  32
CLINTON        CLEAR     31  26  82 NE10      30.43F WCI  22
HOBART         CLEAR     35  29  78 E15       30.41F WCI  25
ALTUS AFB      CLEAR     37  29  74 NE10      30.39F WCI  29
$$

OKZ018>020-024>031-130800-
CENTRAL OKLAHOMA

CITY           SKY/WX    TMP DP  RH WIND       PRES   REMARKS
OKLAHOMA CITY  CLOUDY    39  27  62 NE14      30.44F WCI  31
OKC/WILEY POST CLOUDY    39  27  62 NE12      30.46F WCI  32
OKC/TINKER AFB CLOUDY    38  27  63 NE13      30.43F WCI  30
STILLWATER     CLOUDY    37  24  59 NE8       30.48F WCI  31
GUTHRIE        CLOUDY    38  27  64 NE6       30.47S WCI  33
$$

OKZ008-013-054>072-130800-
NORTHEAST OKLAHOMA

CITY           SKY/WX    TMP DP  RH WIND       PRES   REMARKS
TULSA          CLOUDY    36  19  50 NE15      30.50S WCI  27
TULSA/JONES    CLOUDY    37  18  46 NE14      30.51R WCI  28
PONCA CITY     CLOUDY    34  18  52 NE15      30.51S WCI  24
BARTLESVILLE   CLOUDY    33  16  49 NE10      30.55S WCI  25
MUSKOGEE       CLOUDY    41  26  55 NE13      30.48F
$$

OKZ032-040>043-046>053-073>077-130800-
SOUTH CENTRAL/SOUTHEAST OKLAHOMA

CITY           SKY/WX    TMP DP  RH WIND       PRES   REMARKS
ARDMORE/DWNTWN PTCLDY    41  28  60 NE7       30.42S
MCALESTER      PTCLDY    43  27  53 NE9       30.44S
$$





USA.gov is the U.S. government's official web portal to all federal, state and local government web resources and services.